GFSFLT2_sfc_thetae_003.txt.gz
Theta_e
327 329 343 348 348 350 352 352 351 349 345 343 340 341 342 340 340 339 339 338 337 336 337 338 340 341 342 344 345 346 347 349
326 328 331 344 342 344 347 347 348 345 344 342 340 340 340 339 339 338 338 338 338 337 336 336 338 340 341 342 344 346 346 349
327 330 332 341 343 344 341 339 338 337 337 337 337 337 336 336 336 336 337 338 338 337 335 336 335 337 340 340 343 345 346 348
328 327 329 330 333 337 335 332 330 331 332 333 333 333 333 334 335 335 336 337 337 337 336 335 335 335 339 339 341 343 346 347
325 325 327 328 325 328 330 333 329 331 331 331 331 331 331 332 334 334 334 336 336 337 335 336 335 334 337 339 340 342 344 347
324 324 326 324 328 330 331 330 330 333 331 330 330 329 330 331 332 333 335 335 335 336 335 335 335 333 336 339 338 341 344 343
321 323 323 325 331 332 329 332 333 331 332 331 330 328 329 330 331 332 332 332 333 334 334 334 334 334 336 336 336 340 337 341
323 324 323 327 332 332 331 331 330 330 329 329 329 329 330 328 331 332 334 331 333 333 334 332 333 332 331 335 337 337 334 341
322 322 328 330 333 335 333 331 330 330 330 329 329 330 330 329 332 332 330 332 333 335 334 337 334 332 333 340 338 338 334 341
322 324 329 332 334 336 334 332 332 331 330 331 330 331 329 332 332 329 329 330 329 330 333 334 334 332 334 337 339 336 333 340
322 327 328 331 333 334 334 335 333 335 333 331 331 329 331 331 332 330 329 327 333 331 330 336 333 332 334 337 338 337 337 342
323 329 327 330 329 333 335 335 336 335 336 333 333 333 332 334 334 331 330 330 335 335 336 337 334 338 336 338 337 336 336 343
325 325 329 329 330 334 335 334 334 335 335 335 335 331 331 333 333 333 331 331 333 339 337 335 331 332 333 333 335 335 337 343
326 328 326 328 330 333 335 335 335 337 337 338 333 329 328 334 333 335 335 334 335 337 337 333 335 334 334 333 334 336 340 343
326 330 327 330 333 334 333 332 335 339 337 338 330 327 326 332 333 335 337 335 336 336 335 334 334 336 333 331 330 336 340 344
325 330 329 327 332 330 329 330 331 335 333 334 334 331 331 330 332 334 336 335 335 335 335 336 333 335 335 335 331 336 339 342
326 328 329 328 329 331 330 336 334 336 335 331 334 334 332 332 332 333 334 332 332 333 334 335 336 334 335 340 329 328 323 328
323 328 328 327 328 332 336 336 334 336 337 335 333 332 332 331 332 333 333 332 332 332 332 337 336 334 331 338 336 329 321 320
323 328 328 329 329 332 335 332 333 333 333 336 335 336 335 333 332 332 333 333 333 331 336 335 341 338 338 331 335 339 336 329

GFSFLT2_sfc_thetae_006.txt.gz
Theta_e
327 335 351 355 355 354 352 353 353 351 349 347 342 341 341 341 343 341 339 340 340 339 338 336 338 340 341 343 346 347 348 348
331 333 342 351 347 345 344 347 349 346 344 343 341 341 340 340 339 338 339 339 339 339 339 336 337 339 340 341 343 346 348 346
331 335 339 344 344 344 346 345 340 336 335 336 337 337 337 337 337 337 337 337 337 339 339 337 336 336 339 341 341 344 345 346
331 332 335 336 342 344 343 338 334 331 330 331 332 333 333 334 334 335 336 336 337 338 338 338 335 337 337 338 340 343 344 346
326 325 332 335 330 335 335 335 334 332 332 331 331 331 331 330 332 333 335 336 336 338 338 337 336 335 337 339 341 342 344 345
324 329 329 328 331 333 333 333 334 335 334 332 332 330 329 329 330 332 334 336 336 337 337 337 336 336 336 338 341 340 341 339
323 327 329 330 334 336 330 336 337 335 335 334 332 331 330 329 330 330 332 333 334 335 336 336 336 336 333 332 335 337 336 335
325 328 328 333 337 337 333 334 333 333 334 334 332 331 330 329 328 329 331 332 333 333 332 332 332 331 329 329 332 335 334 333
326 329 333 336 337 340 337 333 333 333 334 330 332 332 330 329 329 331 330 330 331 332 330 332 331 332 329 329 335 335 334 333
327 328 335 336 340 341 339 336 336 335 331 333 332 331 330 328 329 330 331 330 330 330 330 330 331 330 327 330 334 335 335 334
329 332 334 337 340 340 339 338 336 336 334 333 333 328 332 330 329 330 329 330 330 330 331 331 331 331 331 333 335 337 336 337
329 334 335 335 336 338 337 338 338 336 336 334 333 330 330 332 331 331 329 330 329 330 329 331 331 331 332 335 335 336 335 338
332 334 335 331 335 339 340 339 336 337 339 337 336 333 327 330 332 332 330 330 331 330 330 329 330 332 330 331 332 332 333 339
332 335 334 337 334 338 338 336 335 339 339 340 337 330 328 329 332 333 330 331 331 329 329 329 328 328 330 331 332 331 334 337
332 336 337 336 338 340 336 333 332 339 341 339 335 330 328 327 332 333 331 330 333 329 328 329 328 331 330 330 332 331 334 338
332 334 336 336 340 337 332 333 335 335 337 335 336 333 331 330 329 333 331 330 332 329 328 328 329 329 329 329 328 328 332 337
330 333 336 337 338 337 336 339 337 337 336 336 337 335 333 331 332 332 331 330 330 330 330 328 331 328 325 329 326 327 320 325
329 332 334 336 337 339 340 338 338 337 334 335 335 333 331 333 333 333 333 331 330 332 330 329 329 327 325 328 330 327 319 317
326 331 334 336 337 337 339 337 335 331 329 333 334 334 330 333 332 332 332 332 332 332 329 329 330 327 326 324 330 331 331 326

GFSFLT2_sfc_thetae_009.txt.gz
Theta_e
327 342 350 353 353 353 352 352 352 351 349 347 345 343 341 341 343 343 340 340 340 341 341 340 338 337 338 341 342 344 347 346
334 343 349 354 354 354 352 351 352 348 345 342 342 342 341 340 340 340 340 340 340 340 340 340 339 338 340 341 341 343 346 345
331 336 340 351 349 348 348 348 346 342 339 336 336 337 338 338 338 338 338 338 338 338 338 340 339 340 340 339 340 340 343 343
324 330 333 336 341 348 348 347 343 338 334 333 332 333 333 334 335 335 335 336 336 337 337 340 339 339 339 337 338 340 342 341
318 319 322 330 332 333 335 340 337 334 334 334 333 332 332 332 331 332 333 334 336 337 337 339 338 338 339 338 339 340 340 341
318 317 315 318 321 324 327 332 336 336 336 335 332 330 326 323 323 327 331 335 337 337 337 338 338 337 338 336 337 339 340 334
314 316 318 322 322 323 328 326 326 327 328 326 325 324 322 322 322 327 330 333 334 336 337 337 337 337 335 326 329 338 331 334
315 318 318 320 323 323 324 325 323 322 323 324 324 324 322 323 322 321 323 325 325 331 328 331 331 330 328 325 325 330 332 331
314 316 323 325 324 324 326 325 324 325 323 322 323 324 322 322 321 322 323 324 323 325 326 326 325 326 326 325 324 330 331 329
315 319 323 323 325 327 326 326 325 325 324 323 324 325 324 322 322 323 323 323 322 323 324 324 325 326 325 324 324 330 331 329
315 320 322 323 325 326 326 325 325 327 326 325 325 325 326 325 324 321 322 322 321 321 323 324 324 325 324 322 324 331 330 332
315 321 321 322 324 323 323 325 327 327 328 325 325 325 327 327 326 322 322 321 321 321 323 324 324 324 324 325 326 330 330 333
318 320 321 325 322 322 324 325 326 327 326 326 327 325 325 327 326 322 322 322 322 321 321 322 322 322 325 324 324 325 327 331
317 320 320 322 321 323 324 325 326 327 326 327 327 324 323 323 325 323 323 323 322 321 321 322 322 323 321 322 325 325 327 326
320 321 320 320 322 324 323 326 324 326 327 328 326 324 325 323 325 323 323 324 322 320 320 321 320 322 322 322 328 327 327 327
320 321 321 321 321 321 320 322 321 321 324 325 327 326 325 323 322 321 323 323 323 320 320 321 321 320 321 321 321 324 325 327
318 320 323 321 321 321 322 325 324 325 326 327 327 326 326 327 325 324 323 322 323 321 321 321 320 319 318 322 319 320 319 323
316 318 322 322 320 323 325 326 324 325 325 325 325 324 325 326 327 325 325 323 322 322 321 321 321 319 317 321 326 320 314 313
318 320 323 321 320 324 324 323 322 320 320 323 325 326 325 327 326 326 325 324 322 322 322 323 323 323 323 321 323 325 322 322

GFSFLT2_sfc_thetae_012.txt.gz
Theta_e
336 340 345 354 353 354 352 351 350 349 348 348 347 346 343 342 344 344 342 342 341 340 340 341 340 339 338 338 341 341 343 343
335 337 346 354 354 354 353 351 351 351 351 347 345 345 342 343 344 341 340 340 340 340 340 341 340 340 341 340 340 341 341 343
338 342 347 352 353 353 354 353 352 350 347 344 343 341 341 340 340 339 339 339 339 339 339 339 340 341 341 340 340 340 341 342
336 339 341 345 349 353 351 349 348 345 343 341 337 335 334 334 335 335 336 336 336 337 337 338 339 341 341 340 338 339 341 341
328 330 331 330 333 336 339 346 345 343 339 335 335 334 334 334 334 333 333 333 335 335 336 337 338 340 339 340 339 337 340 341
319 318 322 323 329 329 330 334 341 338 336 336 335 335 332 322 322 325 329 333 335 337 337 336 337 338 338 338 336 335 339 332
311 312 316 319 321 321 327 325 328 328 327 328 326 323 321 320 320 326 329 332 334 335 336 337 337 338 337 327 328 333 331 331
312 316 317 318 320 321 322 322 322 321 322 323 323 322 321 322 320 320 320 322 322 329 327 331 331 331 329 326 324 326 329 330
313 315 316 320 321 321 323 322 322 322 321 321 322 323 320 319 319 319 320 322 322 323 324 325 325 325 326 325 324 324 328 329
314 319 321 322 323 324 323 323 322 323 323 322 321 322 322 320 319 323 324 322 320 321 322 322 323 324 324 325 323 323 327 328
317 320 320 322 323 324 322 322 323 322 324 324 323 323 324 322 321 323 320 320 319 319 320 322 322 322 322 323 322 323 327 328
317 320 319 322 323 323 322 321 321 323 325 324 324 324 324 323 323 324 319 319 319 319 320 321 321 322 321 322 322 323 328 329
318 318 320 325 321 320 320 322 323 324 324 323 324 324 325 324 323 320 319 319 321 319 319 319 319 319 320 320 320 323 325 328
318 318 318 319 318 320 321 321 322 324 324 325 325 324 323 323 322 319 319 320 321 318 318 318 318 320 319 319 320 323 323 324
317 318 318 318 320 321 319 320 322 321 324 326 326 324 324 323 323 320 320 321 320 317 317 318 317 322 320 319 324 322 321 323
318 317 317 318 318 319 317 320 319 320 321 323 325 326 326 322 322 318 320 320 320 318 317 318 318 319 318 318 317 316 319 324
317 318 318 318 318 318 319 322 322 321 323 323 324 327 326 324 325 321 320 320 320 318 317 318 318 316 317 318 316 316 313 321
316 318 319 318 319 319 322 322 321 321 322 323 322 324 325 327 326 323 323 320 319 319 318 317 318 318 315 317 321 320 314 311
314 318 319 319 318 321 321 319 318 318 317 320 321 324 322 326 325 325 323 321 320 320 318 319 320 318 319 317 321 324 321 321

GFSFLT2_sfc_thetae_015.txt.gz
Theta_e
331 336 344 353 353 353 352 352 351 349 347 346 346 346 345 344 342 343 342 342 341 341 340 340 340 341 339 339 340 340 339 343
329 334 342 353 354 354 353 351 350 350 349 348 347 346 345 343 342 341 341 340 340 340 340 340 340 342 341 340 340 340 341 342
332 333 340 352 353 353 353 352 351 351 350 350 348 345 343 342 340 341 340 340 339 339 339 339 340 341 341 341 340 340 341 340
334 337 342 346 350 353 352 352 352 352 350 347 345 343 340 336 335 335 336 337 337 338 337 338 339 340 341 340 340 339 339 341
334 337 339 338 341 340 343 352 351 348 345 344 341 336 334 335 335 335 334 333 334 336 336 337 337 340 340 339 340 338 338 340
325 325 327 329 331 333 334 338 345 344 342 339 335 336 335 327 323 326 328 330 333 335 336 336 336 338 338 337 337 337 336 330
317 315 322 323 326 327 330 326 329 328 327 326 328 325 323 321 319 323 327 331 332 334 335 336 337 337 336 329 330 335 326 329
315 313 316 318 320 320 321 321 322 323 321 321 325 323 320 321 319 320 319 320 320 327 324 328 328 329 329 326 325 325 326 328
311 313 317 317 318 318 320 320 320 320 320 320 322 321 319 318 318 318 318 319 320 321 321 322 324 326 326 326 325 324 324 326
310 314 316 318 319 320 321 320 319 320 321 320 320 321 320 318 318 318 320 322 322 319 319 320 321 323 324 324 323 323 322 325
312 314 318 319 321 322 320 320 320 321 321 321 321 322 322 320 319 319 322 322 318 317 318 319 320 321 322 321 322 322 322 325
315 318 319 319 321 321 320 320 320 320 322 322 322 323 323 321 320 320 321 320 317 318 318 318 319 320 320 320 321 321 322 324
317 318 318 324 321 320 318 319 320 322 322 322 322 322 324 323 322 319 318 317 318 318 317 317 317 317 318 318 318 319 322 323
318 317 318 320 319 318 318 319 319 321 321 322 323 323 324 324 323 319 317 317 319 318 316 316 316 317 316 316 318 319 320 322
316 317 317 317 316 318 318 317 319 319 321 323 323 323 325 324 322 318 316 319 319 316 315 315 315 317 317 316 321 320 319 320
316 316 316 316 317 317 315 317 317 318 319 321 322 325 326 324 322 319 317 319 319 316 315 315 315 317 315 316 315 314 321 324
315 316 315 316 317 316 316 319 319 318 321 322 321 325 327 325 322 319 318 319 318 316 315 315 316 316 315 316 313 312 310 317
315 315 317 316 317 316 320 319 318 319 320 319 319 321 322 326 325 322 321 319 317 316 314 315 316 316 313 317 317 313 309 309
315 317 317 317 316 319 319 318 316 316 314 317 318 320 321 325 325 323 322 320 318 317 315 316 318 316 316 315 318 320 318 321

GFSFLT2_sfc_thetae_021.txt.gz
Theta_e
335 342 347 354 354 353 352 352 351 350 348 345 343 342 342 342 345 344 344 343 342 342 341 341 341 343 341 341 341 340 338 336
335 338 344 353 354 354 354 353 352 350 349 348 345 344 344 346 345 344 344 343 342 342 342 342 341 343 344 344 342 342 340 337
337 339 344 352 354 353 353 352 352 351 350 350 348 348 348 347 345 344 343 341 340 341 341 341 340 343 341 341 341 342 340 338
340 339 344 348 353 353 353 352 352 351 351 351 350 349 349 345 345 342 338 337 337 338 339 340 339 341 340 340 340 340 340 339
337 340 342 347 349 349 349 353 353 353 352 351 350 349 349 344 341 336 338 336 335 335 336 337 338 338 340 340 339 339 340 340
334 337 340 342 346 348 347 348 352 352 350 350 348 347 345 339 337 336 336 335 334 334 333 334 336 337 337 338 338 338 339 338
332 335 337 341 344 346 344 349 349 347 345 345 344 342 340 339 338 335 334 333 332 333 333 334 336 337 337 337 335 338 336 336
332 334 337 341 344 345 343 345 344 344 342 342 342 341 338 336 337 336 334 332 333 332 331 332 333 333 333 334 336 336 335 336
329 333 337 340 342 344 343 341 338 337 337 335 336 339 337 335 335 334 332 331 331 331 332 333 332 334 334 335 336 335 336 336
327 330 333 339 341 341 339 336 334 333 333 334 335 336 335 333 334 334 332 331 331 331 331 331 331 331 332 335 336 335 335 336
327 327 331 336 339 337 335 335 333 334 334 334 334 334 336 334 334 332 332 331 331 332 331 331 329 330 331 335 334 335 335 336
326 326 329 333 335 334 333 334 334 333 333 333 334 336 335 335 334 334 332 333 333 331 330 331 330 331 331 333 333 334 334 335
325 324 328 328 331 333 333 334 332 333 333 334 334 335 336 336 336 335 333 333 333 331 330 329 329 328 330 330 332 333 333 333
323 326 327 329 329 332 334 332 333 335 333 334 335 335 336 335 335 335 332 332 333 330 329 330 329 328 329 330 331 331 331 332
324 328 330 329 332 333 332 331 332 332 332 334 335 335 337 336 336 335 329 330 330 329 328 329 329 328 329 329 329 329 331 333
325 326 329 329 332 331 328 328 329 328 332 333 335 336 336 337 335 332 328 329 328 327 328 329 329 328 328 330 327 323 328 333
324 326 328 330 331 331 330 331 333 334 335 335 335 336 336 335 335 331 331 324 326 327 328 328 327 326 328 330 326 326 319 325
324 326 329 330 330 331 332 332 333 334 333 332 334 335 335 334 334 330 329 329 329 330 329 328 327 327 324 327 330 326 317 315
324 328 329 330 331 331 333 332 333 331 328 332 333 334 334 331 333 330 332 330 331 330 329 328 328 328 329 324 326 332 332 329

GFSFLT2_sfc_thetae_024.txt.gz
Theta_e
339 340 347 355 354 353 352 352 351 350 348 346 344 342 341 341 343 345 343 344 344 343 342 342 342 342 342 342 343 341 340 338
339 340 346 354 354 354 353 353 352 351 350 349 345 344 343 345 346 347 345 345 344 344 343 343 343 345 343 343 343 343 342 341
339 342 347 354 354 353 353 353 352 352 350 350 348 348 348 348 348 346 345 344 343 341 341 342 342 342 342 342 341 342 342 341
341 341 346 351 354 354 353 352 352 351 351 351 350 349 349 349 347 345 344 342 338 338 338 339 341 341 341 340 340 342 341 342
339 341 343 350 349 350 350 354 353 352 352 351 351 351 350 349 346 343 341 338 337 336 335 336 338 339 341 340 340 340 341 340
335 340 342 343 347 349 348 349 353 352 351 352 350 349 348 344 341 341 341 336 336 335 335 335 335 336 337 338 339 338 339 338
333 336 340 344 346 348 344 347 351 347 348 348 346 346 345 342 341 338 338 335 335 335 334 334 334 335 338 337 336 338 337 337
332 335 338 345 348 348 344 345 347 346 345 346 347 346 344 339 340 339 338 337 338 336 335 333 334 335 335 336 334 335 334 335
331 334 339 342 347 349 345 344 345 343 343 341 341 344 342 338 339 339 337 335 336 335 334 334 333 334 335 335 335 337 334 335
331 333 338 343 348 349 349 345 345 341 339 338 337 340 341 338 338 338 338 336 334 333 333 333 333 334 333 334 334 335 334 335
334 334 338 342 347 348 348 349 344 341 337 337 335 337 342 339 339 338 338 335 335 336 335 333 333 332 332 333 334 336 336 334
335 337 338 342 346 349 347 345 341 337 337 334 335 341 341 342 341 341 338 336 337 339 338 336 333 333 332 332 334 335 335 337
335 336 338 337 343 347 346 342 337 336 335 335 337 339 342 342 342 340 336 336 338 338 336 333 330 330 330 330 335 335 335 337
335 336 335 338 341 343 343 339 339 339 336 337 338 338 341 341 341 339 339 337 339 336 335 335 332 331 329 331 331 333 334 335
334 335 336 337 340 342 338 338 335 335 335 337 337 338 340 341 340 340 339 338 332 330 334 332 332 332 331 332 331 331 333 333
332 333 335 336 340 337 334 332 331 330 332 335 337 340 340 340 338 338 338 330 331 330 328 332 333 329 331 333 330 329 331 334
331 333 335 336 338 337 334 334 333 332 333 336 338 340 340 339 338 337 335 334 330 326 330 331 331 330 330 334 328 327 322 326
331 333 334 337 338 338 338 336 336 337 336 334 335 336 338 338 338 336 335 331 331 330 331 333 332 329 328 333 334 328 321 317
331 333 335 337 338 338 338 335 335 330 328 335 335 338 337 337 336 336 335 333 334 334 334 334 332 331 332 330 333 331 331 327

GFSFLT2_sfc_thetae_027.txt.gz
Theta_e
337 343 353 353 354 354 353 351 350 350 348 347 345 344 343 342 342 342 341 342 343 344 343 343 343 342 343 343 344 342 342 341
337 339 350 354 354 354 354 352 351 350 350 349 346 344 344 345 345 345 344 345 346 345 345 344 344 344 343 343 343 343 343 343
337 340 344 355 354 354 353 352 352 351 350 350 349 348 347 347 347 345 346 346 344 344 342 341 341 343 343 342 342 342 341 342
338 340 342 355 355 354 353 352 352 352 351 351 350 349 349 348 349 348 347 345 343 340 338 338 339 340 342 341 341 341 341 342
339 339 341 348 354 352 349 354 353 353 352 351 351 350 350 349 349 347 346 343 340 338 337 336 336 337 339 341 341 341 341 341
335 339 341 340 346 350 347 349 353 352 351 351 349 350 350 343 341 345 344 342 339 338 336 336 336 336 336 338 339 339 339 337
332 336 338 342 345 347 343 350 352 348 347 346 346 347 348 346 343 339 342 337 338 338 337 336 335 335 336 333 334 340 336 335
332 334 338 351 353 349 345 344 349 348 346 347 350 353 351 343 340 339 339 339 339 340 337 337 336 335 335 333 334 335 336 335
329 334 336 343 353 356 348 343 345 347 347 345 345 353 348 341 341 340 338 338 340 337 338 337 334 338 335 334 335 334 335 335
329 332 336 345 354 356 357 346 346 348 344 345 343 345 343 339 342 340 341 338 340 337 336 334 336 336 335 333 334 332 332 336
334 334 338 344 356 353 353 358 352 353 345 341 339 339 344 341 344 339 340 338 337 337 337 336 333 334 334 333 334 335 335 337
333 342 343 349 355 356 355 355 352 346 343 339 337 343 340 344 344 343 338 338 339 343 339 339 337 336 332 333 333 334 335 336
338 341 341 338 345 354 354 352 348 342 340 337 337 338 343 344 344 342 339 338 343 342 342 337 335 334 332 331 333 333 334 338
340 340 340 345 343 350 355 350 348 349 339 336 337 338 341 342 342 341 339 341 343 340 340 336 335 335 332 330 333 335 335 335
337 340 344 343 348 353 349 348 340 338 337 336 337 338 341 341 342 342 341 342 341 338 331 332 333 335 334 335 331 331 333 334
336 339 341 341 351 348 342 336 335 333 336 335 336 340 340 341 340 343 340 340 337 332 333 333 329 326 333 334 332 331 333 334
336 338 339 341 346 345 340 341 337 337 334 334 336 340 340 340 342 340 340 339 337 332 333 332 332 330 331 333 326 328 321 328
334 337 338 341 342 345 346 342 338 338 339 335 334 336 339 339 340 339 338 337 335 336 331 335 334 331 329 332 333 329 322 318
334 337 339 341 341 341 344 343 344 333 329 333 336 334 338 338 337 336 337 336 335 335 337 335 337 334 333 329 333 335 332 330

GFSFLT2_sfc_thetae_030.txt.gz
Theta_e
343 347 351 352 353 353 352 351 350 349 349 347 345 344 343 343 343 344 342 341 341 343 344 344 344 344 343 345 345 345 344 342
336 345 352 352 354 354 353 352 351 350 349 348 347 346 346 346 346 345 344 343 345 346 345 344 344 344 344 343 344 345 344 342
338 343 353 353 353 353 353 352 351 350 350 350 348 348 348 347 347 347 347 345 346 345 344 342 341 341 344 344 343 344 343 341
340 341 354 352 353 355 353 352 351 350 350 350 349 349 349 349 349 349 348 348 346 345 342 339 339 339 339 342 342 343 342 341
337 337 352 352 351 351 351 353 352 351 351 350 350 350 349 350 349 349 348 349 347 344 340 338 338 337 337 339 342 343 341 342
332 337 345 352 352 350 347 350 353 353 352 352 351 351 349 344 341 344 345 348 347 343 340 339 337 337 337 336 338 340 341 336
328 335 338 342 350 350 347 346 350 350 349 348 345 345 346 343 344 342 343 349 344 342 340 339 338 337 336 331 330 338 336 335
329 330 337 344 348 348 345 345 350 348 346 345 344 345 347 346 345 342 339 340 339 340 336 338 336 334 333 331 330 335 335 334
329 336 339 346 349 347 346 345 350 348 346 344 344 347 346 346 345 342 339 341 338 338 337 336 334 334 333 336 335 333 333 334
332 338 340 349 347 349 351 345 348 349 346 345 347 347 347 344 342 343 341 342 341 340 338 337 336 335 334 333 333 333 332 332
339 340 343 350 349 349 346 352 351 350 349 347 347 347 347 345 343 343 344 341 340 340 337 337 335 335 333 332 333 332 333 334
341 341 342 349 352 350 351 349 359 352 351 348 346 348 345 344 344 346 342 341 339 339 339 337 336 336 334 332 332 331 331 332
343 339 347 337 352 352 353 352 350 350 349 349 344 345 344 346 346 345 341 339 340 341 339 336 334 333 333 331 329 330 331 332
342 348 347 348 351 351 354 353 351 355 347 345 345 343 344 344 344 342 340 340 342 339 336 335 333 332 330 330 329 329 331 333
343 345 352 352 354 351 352 352 349 347 345 344 343 343 346 344 343 342 339 341 340 337 335 334 331 332 330 329 331 329 330 332
342 345 351 351 353 350 348 344 341 339 340 340 342 343 343 344 342 342 340 339 338 335 333 332 331 329 324 327 327 326 328 330
343 345 347 348 350 349 347 346 341 339 337 339 340 343 343 342 341 341 340 338 337 334 332 331 330 326 325 328 322 322 318 322
339 341 342 346 348 348 345 345 348 343 344 340 341 340 342 341 341 340 338 338 336 334 331 331 330 328 325 328 327 322 316 314
337 339 342 345 345 346 347 344 342 336 335 338 337 339 341 342 340 339 339 335 334 334 332 332 332 329 327 323 326 328 326 323

GFSFLT2_sfc_thetae_033.txt.gz
Theta_e
340 339 347 353 352 351 351 350 349 349 348 347 345 344 342 342 342 342 341 341 341 341 342 343 344 344 343 343 346 346 344 342
341 339 347 352 352 353 352 351 350 350 349 348 348 346 345 346 346 344 342 342 342 344 345 345 344 343 343 343 343 345 344 342
340 339 346 352 353 352 352 351 350 350 349 349 349 349 348 348 348 347 345 344 344 346 346 343 343 341 341 341 342 344 343 342
341 341 344 346 349 354 352 351 351 349 349 348 348 348 349 349 348 348 348 347 346 348 345 344 341 339 339 339 341 342 342 342
337 344 343 344 345 346 347 353 351 350 350 349 348 349 349 349 348 349 348 349 348 347 346 343 340 339 338 338 340 342 342 342
330 343 344 343 344 343 344 348 351 352 351 350 349 349 347 341 343 344 346 348 348 348 346 343 340 340 338 338 337 339 342 334
317 340 344 343 343 343 345 344 345 345 344 345 344 343 342 339 336 340 343 349 349 349 347 344 342 340 338 330 329 335 333 333
319 327 343 343 344 343 342 342 344 344 343 344 342 339 341 339 337 339 334 340 341 345 336 339 336 334 330 328 326 325 331 333
318 319 335 343 345 343 343 340 343 342 342 342 341 337 338 338 338 336 331 332 333 333 331 330 331 332 329 330 331 330 331 333
316 319 325 335 344 343 339 340 342 342 341 340 339 339 338 338 336 332 329 330 331 330 332 330 330 332 328 328 329 330 330 330
319 321 322 334 339 341 339 339 343 343 342 340 339 339 341 340 334 332 332 332 330 330 327 329 328 327 326 327 326 328 330 331
324 322 323 326 336 339 338 340 342 343 342 340 339 341 342 337 333 333 330 331 331 330 330 329 329 328 327 326 326 327 326 330
323 322 324 344 340 340 338 340 343 342 339 338 336 340 339 335 333 333 331 330 331 330 328 327 327 326 326 326 323 323 326 329
322 321 326 335 340 341 341 340 341 340 335 334 332 333 337 336 337 333 332 330 331 330 329 328 326 325 324 324 324 323 324 326
326 331 331 339 341 342 343 341 340 335 333 332 332 332 334 335 336 333 331 330 331 328 326 326 325 324 323 323 325 325 324 325
326 330 334 340 340 344 341 339 334 331 330 332 334 332 336 335 336 333 334 330 330 327 326 326 324 322 320 322 321 321 320 323
327 333 335 338 340 339 340 336 333 330 329 328 330 331 333 334 332 331 330 329 327 327 326 326 325 319 318 320 317 319 314 316
329 331 332 335 338 338 338 335 332 330 328 327 327 329 331 332 332 330 330 328 328 327 323 322 322 320 317 319 319 314 309 309
329 331 334 337 337 335 334 332 329 324 323 325 325 328 331 332 334 332 330 328 326 325 323 323 325 322 321 318 319 322 319 317

GFSFLT2_sfc_thetae_036.txt.gz
Theta_e
338 341 347 352 352 352 351 350 348 348 347 347 345 345 343 341 342 341 339 340 340 341 342 343 343 344 343 343 345 344 343 342
336 337 345 352 352 352 352 350 349 348 348 348 348 346 346 345 344 342 342 342 341 342 343 345 345 344 343 343 344 344 343 343
335 334 340 351 352 351 351 350 349 348 348 348 348 348 347 347 347 344 343 342 343 344 346 346 344 344 343 341 342 342 343 343
337 333 339 343 349 352 350 350 349 348 348 348 348 348 348 348 348 348 347 344 344 345 346 346 344 343 341 340 340 341 342 343
337 335 338 339 343 344 345 351 350 349 348 348 348 348 348 348 348 348 346 347 346 347 347 346 345 343 341 339 339 340 341 342
335 335 339 339 338 341 342 346 350 350 350 349 348 348 346 342 341 343 345 346 346 348 348 346 346 343 341 339 338 338 340 334
330 336 339 339 338 338 341 341 344 343 343 343 341 341 341 339 336 342 344 347 347 349 349 348 346 342 341 331 330 335 330 332
323 336 340 339 340 339 338 339 343 341 340 340 340 339 340 339 337 338 334 336 340 347 342 343 339 336 332 329 327 325 326 330
316 330 339 339 339 339 338 338 340 340 339 340 340 339 338 336 333 332 333 332 334 335 334 331 331 330 330 329 327 325 325 329
314 316 337 339 339 340 338 339 339 339 339 339 339 338 338 336 333 333 333 330 331 330 330 328 327 329 329 329 328 328 329 331
316 316 325 338 339 340 339 338 339 339 339 338 338 338 337 336 335 335 330 326 328 329 329 331 331 328 328 328 326 325 327 327
316 318 319 332 339 339 339 337 339 339 339 338 337 337 337 337 336 334 330 329 328 328 327 330 328 326 325 325 324 326 325 325
316 319 319 327 334 338 338 335 339 340 340 338 337 337 338 338 336 331 329 328 329 328 327 325 325 324 324 324 323 323 323 325
318 319 317 328 331 334 333 337 339 339 339 335 336 338 339 338 334 331 329 328 328 327 325 325 324 323 321 321 323 323 322 323
316 318 320 333 333 335 335 335 335 333 331 331 333 336 335 335 335 330 330 328 328 326 325 324 323 322 322 321 324 325 321 323
324 326 327 333 334 338 336 334 331 328 327 327 330 334 334 332 333 329 329 328 327 326 324 323 323 323 322 321 318 318 320 324
324 326 331 334 337 337 336 332 330 328 326 327 329 332 334 333 332 331 329 327 327 324 324 323 322 319 319 319 315 317 313 317
325 329 332 335 335 335 334 332 327 327 326 324 324 325 329 332 331 330 328 327 325 325 322 321 320 318 315 315 317 312 307 310
326 329 333 335 335 335 333 330 327 323 321 322 324 325 328 330 329 331 328 327 325 324 322 320 322 319 317 315 317 319 315 314

GFSFLT2_sfc_thetae_042.txt.gz
Theta_e
339 344 347 353 352 353 352 351 350 348 347 347 345 344 343 340 341 340 338 338 338 339 339 339 341 341 342 342 342 342 342 342
337 341 344 353 352 353 353 352 350 349 348 348 347 345 344 344 343 341 339 339 339 340 341 342 342 343 344 343 344 344 344 344
336 338 340 352 352 352 352 351 350 349 348 348 347 346 346 345 344 342 341 340 341 342 343 343 343 345 345 342 341 342 342 342
333 334 336 346 349 353 352 351 350 349 348 348 347 347 346 346 345 344 344 343 343 343 343 344 345 346 345 343 341 340 339 339
329 331 331 339 343 344 346 352 351 349 348 348 348 347 347 347 346 346 344 345 343 344 344 345 346 347 345 345 341 339 339 339
331 327 328 333 338 340 342 345 350 350 349 348 348 348 345 341 341 341 344 344 345 345 346 346 347 348 346 343 340 340 340 334
328 330 327 329 335 336 339 339 343 342 342 342 342 342 342 339 338 341 343 344 345 346 347 348 348 347 344 337 336 338 334 333
329 331 331 328 331 333 334 335 338 341 339 340 339 339 341 338 339 341 338 340 340 344 340 345 345 344 339 335 333 332 331 330
320 325 331 332 331 331 332 334 335 338 338 337 338 337 338 337 335 337 336 335 336 338 339 339 339 339 337 335 333 331 330 328
314 316 320 333 334 333 330 332 333 334 336 335 335 336 336 335 333 333 334 333 332 332 336 336 336 335 334 333 332 331 330 329
314 314 316 327 334 334 331 330 332 332 334 334 334 336 336 334 332 331 331 331 330 331 332 334 333 333 332 331 330 330 330 330
313 314 314 318 330 333 333 332 331 332 334 333 334 335 336 334 332 330 330 329 329 331 331 332 331 330 329 328 329 329 329 329
313 313 315 319 330 333 334 335 334 333 333 334 334 335 336 334 332 330 329 328 330 329 329 329 329 329 329 328 326 326 328 328
312 313 313 315 326 331 333 334 333 333 334 334 334 335 336 335 334 331 330 330 330 329 328 328 327 329 326 325 326 327 325 325
312 313 313 313 318 328 330 329 330 332 333 334 333 334 335 335 335 332 331 330 330 328 327 326 326 325 326 326 325 326 326 325
312 313 313 313 317 329 329 328 328 330 332 332 333 335 335 335 335 333 331 330 329 328 328 326 325 325 325 326 323 321 323 325
311 313 313 314 321 327 329 327 328 327 328 330 333 336 337 336 334 334 332 329 329 326 326 325 326 324 323 324 319 317 315 319
309 312 315 317 325 327 328 326 324 325 325 326 328 330 333 335 334 334 329 328 327 327 326 326 325 323 319 320 320 318 312 312
309 317 323 326 328 329 328 326 327 325 324 323 326 327 330 333 332 330 329 328 327 326 325 325 324 324 319 317 319 319 318 317

GFSFLT2_sfc_thetae_045.txt.gz
Theta_e
345 346 349 355 355 355 353 352 351 350 349 349 348 347 346 344 345 343 342 341 340 340 339 340 341 341 341 341 341 341 341 341
343 346 346 355 354 354 354 353 351 350 349 349 348 348 347 346 345 344 343 340 341 341 341 341 343 343 344 344 343 343 343 343
344 347 345 353 354 354 354 353 351 349 349 349 349 348 347 346 346 345 344 342 341 342 343 343 344 344 345 343 341 341 341 341
344 346 346 348 352 353 353 352 351 350 349 349 348 347 347 347 346 346 345 344 343 345 344 345 345 346 345 343 342 341 339 338
342 343 343 347 348 347 348 353 352 351 350 349 348 348 347 347 347 346 344 345 344 344 345 346 346 347 346 344 342 339 338 338
337 339 341 340 347 347 346 348 352 351 350 349 349 349 346 342 342 342 343 345 346 346 346 346 347 348 347 344 342 340 339 341
338 339 338 340 343 346 342 347 349 347 346 345 344 346 345 343 343 340 342 345 347 347 347 348 348 347 346 343 341 340 339 339
339 340 340 340 342 343 342 342 346 348 347 348 347 349 348 343 343 342 340 342 343 345 341 344 345 346 345 343 341 340 339 338
332 337 342 342 340 343 342 341 342 343 345 344 344 349 346 344 342 341 339 339 343 340 341 343 343 346 346 345 343 340 339 338
328 331 335 343 344 344 344 341 342 342 342 344 343 345 344 340 341 340 340 338 339 341 341 341 342 343 345 345 343 340 339 339
330 331 334 336 348 345 343 344 342 343 342 342 342 343 345 341 343 340 340 339 340 339 338 338 340 343 346 344 342 340 339 340
329 333 336 337 338 346 346 345 343 342 341 341 341 343 343 343 342 340 338 338 338 340 339 338 340 343 342 344 341 339 339 340
330 331 336 328 329 341 345 345 343 341 340 340 341 341 343 343 342 340 338 337 339 338 337 336 335 340 343 343 339 337 338 339
332 334 333 334 329 338 344 343 344 344 340 341 342 341 342 342 342 341 338 340 339 337 337 336 336 340 341 341 337 337 337 339
331 334 334 331 333 337 340 343 342 342 342 342 342 342 343 343 342 341 339 340 340 338 336 335 339 339 338 338 335 335 336 336
331 332 335 332 335 333 336 336 338 337 340 341 342 344 344 344 343 341 340 340 340 338 335 339 339 338 335 331 332 330 332 334
330 332 335 333 332 334 336 340 341 341 338 338 343 344 345 344 341 342 342 336 334 335 340 339 338 334 334 332 325 324 322 326
327 331 331 332 333 336 340 340 340 340 339 338 340 341 341 343 343 343 339 336 339 341 338 339 338 335 327 326 328 327 321 319
325 325 327 334 336 337 340 340 340 338 337 339 340 343 343 344 343 340 338 342 342 340 340 337 334 332 328 325 325 328 328 327

GFSFLT2_sfc_thetae_048.txt.gz
Theta_e
347 350 353 355 355 354 354 353 351 351 350 350 349 348 347 347 346 345 344 344 341 340 339 340 341 342 341 341 341 341 342 342
344 347 351 356 355 355 355 354 352 351 350 350 350 349 348 347 347 345 345 343 342 342 341 342 343 343 343 344 344 344 344 344
344 347 347 356 355 355 355 353 352 351 350 350 349 349 348 348 347 346 345 345 345 344 343 343 344 344 344 345 342 342 342 342
347 349 349 351 354 355 355 353 352 351 350 349 348 348 348 348 347 346 346 346 346 347 347 346 345 345 345 345 343 341 340 339
346 346 348 350 348 348 348 355 353 352 351 349 349 349 348 348 348 347 345 346 347 347 347 347 346 346 347 345 344 342 340 340
341 347 348 346 348 347 343 345 353 352 351 350 350 349 347 342 344 343 342 345 347 347 347 346 347 347 347 346 344 342 341 341
337 342 346 349 348 348 343 347 351 347 347 345 343 343 344 341 342 340 342 346 347 348 348 348 347 348 347 345 345 342 341 342
339 341 345 350 350 348 346 344 346 347 346 347 346 349 348 340 341 341 339 342 343 346 342 344 344 346 345 345 343 341 341 340
335 338 344 350 351 351 347 345 346 344 347 346 347 353 349 344 346 343 339 340 341 340 341 342 341 346 346 345 344 342 341 340
332 334 337 344 353 352 353 348 349 350 346 348 348 349 347 343 346 343 343 338 339 339 340 341 341 344 344 345 345 343 341 340
333 335 337 340 351 354 354 356 352 351 349 347 347 347 351 346 349 342 342 339 338 339 338 341 339 342 343 343 344 344 342 341
333 337 339 342 346 352 354 354 353 349 349 346 346 351 349 350 351 348 341 341 338 341 342 340 340 342 340 344 344 345 343 341
336 336 339 335 336 345 351 350 348 346 346 346 347 348 349 350 349 347 342 341 340 341 338 337 336 334 335 344 345 346 343 342
335 337 336 341 339 341 349 344 349 353 347 346 347 347 349 349 349 346 343 342 346 339 337 336 334 335 333 343 342 344 343 340
332 336 344 343 347 344 340 344 343 345 346 346 346 347 349 349 348 347 345 346 345 339 335 335 336 335 340 343 340 338 340 342
332 337 344 342 349 342 336 338 340 341 345 345 347 349 349 349 348 347 346 343 344 340 339 339 337 339 341 341 338 338 338 338
331 336 342 343 346 343 339 343 343 344 344 347 348 350 350 350 349 345 348 345 345 341 341 341 340 338 337 338 333 330 324 333
327 334 336 342 344 345 344 345 347 348 346 344 346 347 348 348 345 347 348 346 345 343 340 343 344 341 336 337 337 331 322 321
326 328 333 338 342 343 347 349 351 343 341 343 346 348 344 346 347 348 348 346 345 344 344 344 343 343 340 330 329 333 334 331